| time (UTC) | temp C | wind direction | speed KPH | gust KPH | rain 1hr cm | rain 24hr cm | rain mn cm | humidity % | barometer mb |
| 20260504214523 | 17 | 181 | 1.6 | 3.2 | 0.00 | 0.05 | 0.05 | 43 | 1001.2 |
| 20260504213045 | 17 | 13 | 0.0 | 3.2 | 0.00 | 0.05 | 0.05 | 44 | 1001.2 |
| 20260504211516 | 17 | 224 | 1.6 | 9.7 | 0.00 | 0.05 | 0.05 | 43 | 1001.2 |
| 20260504210015 | 16 | 212 | 1.6 | 14.5 | 0.00 | 0.05 | 0.05 | 45 | 1001.4 |
| 20260504204519 | 16 | 258 | 3.2 | 14.5 | 0.00 | 0.05 | 0.05 | 45 | 1001.5 |
| 20260504203024 | 16 | 56 | 1.6 | 14.5 | 0.00 | 0.05 | 0.05 | 45 | 1001.5 |
| 20260504201531 | 16 | 36 | 4.8 | 17.7 | 0.00 | 0.05 | 0.05 | 47 | 1001.6 |
| 20260504200012 | 16 | 266 | 1.6 | 11.3 | 0.00 | 0.05 | 0.05 | 47 | 1001.6 |
| 20260504194518 | 17 | 44 | 3.2 | 12.9 | 0.00 | 0.05 | 0.05 | 46 | 1001.7 |
| 20260504193021 | 16 | 20 | 3.2 | 11.3 | 0.00 | 0.05 | 0.05 | 50 | 1001.9 |
| 20260504191525 | 16 | 37 | 3.2 | 16.1 | 0.00 | 0.05 | 0.05 | 52 | 1002.1 |
| 20260504190028 | 16 | 182 | 3.2 | 12.9 | 0.00 | 0.05 | 0.05 | 53 | 1002.1 |
| 20260504184515 | 15 | 172 | 1.6 | 6.4 | 0.00 | 0.05 | 0.05 | 55 | 1002.2 |
| 20260504183021 | 15 | 35 | 3.2 | 11.3 | 0.00 | 0.05 | 0.05 | 56 | 1002.2 |
| 20260504181523 | 14 | 217 | 1.6 | 6.4 | 0.00 | 0.05 | 0.05 | 58 | 1002.4 |
| 20260504180026 | 13 | 221 | 1.6 | 11.3 | 0.00 | 0.05 | 0.05 | 64 | 1002.5 |
| 20260504174526 | 12 | 170 | 1.6 | 12.9 | 0.00 | 0.05 | 0.05 | 64 | 1002.7 |
| 20260504173023 | 11 | 219 | 1.6 | 8.0 | 0.00 | 0.05 | 0.05 | 69 | 1002.6 |
| 20260504171523 | 10 | 208 | 3.2 | 14.5 | 0.00 | 0.05 | 0.05 | 71 | 1002.6 |
| 20260504081528 | -1 | 227 | 0.0 | 1.6 | 0.00 | 0.03 | 0.00 | 88 | 1003.6 |
| 20260504050024 | -1 | 221 | 0.0 | 0.0 | 0.00 | 0.03 | 0.00 | 85 | 1003.5 |
| 20260504044521 | -1 | 221 | 0.0 | 1.6 | 0.00 | 0.03 | 0.00 | 85 | 1003.7 |
| 20260504043018 | -1 | 271 | 0.0 | 0.0 | 0.00 | 0.03 | 0.00 | 84 | 1003.7 |
| 20260504041515 | -1 | 271 | 0.0 | 0.0 | 0.00 | 0.03 | 0.00 | 84 | 1003.6 |
| 20260504040020 | 0 | 271 | 0.0 | 0.0 | 0.00 | 0.03 | 0.00 | 82 | 1003.4 |
| 20260504034536 | 0 | 271 | 0.0 | 1.6 | 0.00 | 0.03 | 0.03 | 81 | 1003.4 |
| 20260504033037 | 0 | 271 | 0.0 | 1.6 | 0.00 | 0.03 | 0.03 | 81 | 1003.4 |
| 20260504031514 | 0 | 271 | 0.0 | 1.6 | 0.00 | 0.03 | 0.03 | 80 | 1003.5 |
| 20260504030017 | 0 | 271 | 0.0 | 1.6 | 0.00 | 0.03 | 0.03 | 80 | 1003.4 |
| 20260504024522 | 0 | 271 | 0.0 | 1.6 | 0.00 | 0.03 | 0.03 | 80 | 1003.4 |
| 20260504023026 | 0 | 271 | 0.0 | 0.0 | 0.00 | 0.03 | 0.03 | 80 | 1003.4 |
| 20260504021533 | 0 | 271 | 0.0 | 0.0 | 0.00 | 0.03 | 0.03 | 79 | 1003.5 |
| 20260504020016 | 0 | 271 | 0.0 | 1.6 | 0.00 | 0.03 | 0.03 | 79 | 1003.4 |
| 20260504014520 | 0 | 6 | 0.0 | 1.6 | 0.00 | 0.03 | 0.03 | 77 | 1003.5 |
| 20260504013033 | 1 | 6 | 0.0 | 1.6 | 0.00 | 0.03 | 0.03 | 77 | 1003.5 |
| 20260504011528 | 1 | 6 | 0.0 | 0.0 | 0.00 | 0.03 | 0.03 | 76 | 1003.3 |
| 20260504010033 | 1 | 6 | 0.0 | 1.6 | 0.00 | 0.03 | 0.03 | 74 | 1003.2 |
| 20260504004516 | 2 | 8 | 0.0 | 0.0 | 0.00 | 0.03 | 0.03 | 71 | 1003.1 |
| 20260504003020 | 3 | 8 | 0.0 | 1.6 | 0.00 | 0.03 | 0.03 | 69 | 1003.1 |
| 20260504001525 | 3 | 8 | 0.0 | 1.6 | 0.00 | 0.03 | 0.03 | 65 | 1002.9 |
| 20260504000027 | 4 | 8 | 0.0 | 1.6 | 0.00 | 0.03 | 0.03 | 60 | 1002.8 |
| 20260503234527 | 5 | 8 | 0.0 | 1.6 | 0.00 | 0.03 | 0.03 | 60 | 1002.7 |
| 20260503233018 | 5 | 359 | 1.6 | 9.7 | 0.00 | 0.03 | 0.03 | 56 | 1002.6 |
| 20260503231520 | 5 | 186 | 0.0 | 6.4 | 0.00 | 0.03 | 0.03 | 56 | 1002.5 |
| 20260503230026 | 6 | 233 | 0.0 | 9.7 | 0.00 | 0.03 | 0.03 | 54 | 1002.6 |
| 20260503224527 | 6 | 121 | 3.2 | 9.7 | 0.00 | 0.03 | 0.03 | 53 | 1002.5 |
| 20260503223029 | 6 | 259 | 0.0 | 9.7 | 0.00 | 0.03 | 0.03 | 53 | 1002.4 |
| 20260503221529 | 6 | 219 | 3.2 | 12.9 | 0.00 | 0.03 | 0.03 | 53 | 1002.4 |
| 20260503220022 | 6 | 341 | 1.6 | 11.3 | 0.00 | 0.03 | 0.03 | 51 | 1002.2 |